Regional Weather Roundup
Issued by NWS New Orleans/Baton Rouge, LA

Home | Current Version | Previous Version | Text Only | Print | Product List | Glossary On
Versions: 1 2 3 4 5 6 7 8 9 10 11 12 13 14 15 16 17 18 19 20 21 22 23 24 25 26 27 28 29 30 31 32 33 34 35 36 37 38 39 40 41 42 43 44 45 46 47 48 49 50
562
ASUS44 KLIX 301110
RWRLIX
NEW ORLEANS REGIONAL WEATHER ROUNDUP
NATIONAL WEATHER SERVICE NEW ORLEANS LA
600 AM CDT TUE SEP 30 2014

NOTE: "FAIR" INDICATES FEW OR NO CLOUDS BELOW 12,000 FEET WITH NO
      SIGNIFICANT WEATHER AND/OR OBSTRUCTIONS TO VISIBILITY.
      SKY/WX - SKY CONDITION AND SIGNIFICANT WEATHER.
      TMP - AIR TEMPERATURE.     DP    - DEWPOINT TEMPERATURE.
      RH  - RELATIVE HUMIDITY.   PRES  - PRESSURE.
      HI  - HEAT INDEX.          WCI   - WIND CHILL INDEX.

*  THESE STATIONS ARE NOT NWS OR FAA STATIONS AND ARE NOT UNDER
   NWS QUALITY CONTROL.

LAZ038-040-048-061>063-065>067-069-301200-
SOUTHEAST LOUISIANA

CITY           SKY/WX    TMP DP  RH WIND       PRES   REMARKS
N.O. AUDUBON   NOT AVBL
N.O. INTL ARPT PTCLDY    75  71  87 NE5       29.87S
N.O. LAKEFRONT CLEAR     77  73  87 NE9       29.88R
N.O. DOWNTOWN*   N/A     75  70  83 NE6       29.88R
SLIDELL        CLEAR     68  66  93 N3        29.88R
BATON ROUGE    CLEAR     71  69  93 NE3       29.88R
BOOTHVILLE     MOCLDY    77  75  93 CALM      29.88R
BELLE CHASSE   PTCLDY    71  68  90 CALM      29.87R
BOGALUSA*        N/A     69  66  90 CALM      29.91R FOG
GALLIANO*      NOT AVBL
NEW ROADS*     FOG       69  68  98 CALM      29.89R VSB 3/4
GONZALES*      FOG       69  69 100 CALM      29.87S VSB 3/4
HAMMOND*       CLEAR     70  68  94 CALM      29.90S
HOUMA*         CLEAR    N/A N/A N/A CALM      29.87S HAZE
PORT FOURCHON* SUNNY     77  73  88 NE5       29.90R

$$

MSZ070-080>082-301200-
SOUTHERN MISSISSIPPI

CITY           SKY/WX    TMP DP  RH WIND       PRES   REMARKS
MCCOMB         CLEAR     69  66  90 CALM      29.90S
GULFPORT       CLEAR     70  69  97 CALM      29.88R
BILOXI         CLEAR     71  71 100 NE5       29.88R
PASCAGOULA     CLEAR     69  68  96 N3        29.89R FOG

$$

COASTAL OBSERVATIONS
LAKE AND NEARSHORE STATIONS

STATION/POSITION TIME  TEMP    WIND        PRES    WAVE
                       AIR SEA DIR/SP/G            HT/PER
                 (UTC) (F)     (DEG/KT/KT) (MB)    (FT/S)
PASCAGOULA       1100   72      30/  6/  8 1011.2
WAVELAND YACHT   1100   73      50/  6/  7 1011.1
GRAND ISLE       1100   78 80   50/  4/  6 1012.0
SOUTHWEST PASS   1100   80 86   20/  5/  5 1011.6
NEW CANAL        1100   77 77   60/  7/  8 1011.9
SHELL BEACH      1100   77 75   20/  6/  7 1011.4

OFFSHORE STATIONS

STATION/POSITION TIME  TEMP    WIND        PRES    WAVE
                       AIR SEA DIR/SP/G            HT/PER
                 (UTC) (F)     (DEG/KT/KT) (MB)    (FT/S)
64 S DAUPHIN ISL 1002   80 82   80/  8/ 10 1011.3    2/ 4

$$




USA.gov is the U.S. government's official web portal to all federal, state and local government web resources and services.